Weather History for Whidbey Island, WA

Change the Weather History Date:

Sunday, December 8, 2013

  Actual Average Record
Temperature  
Mean Temperature 28 °F -  
Max Temperature 35 °F 45 °F 57 °F (2014)
Min Temperature 21 °F 36 °F 21 °F (2013)
Degree Days  
Heating Degree Days 37    
Moisture  
Dew Point 14 °F    
Average Humidity 59    
Maximum Humidity 78    
Minimum Humidity 46    
Precipitation  
Precipitation 0.00 in - - ()
Sea Level Pressure  
Sea Level Pressure 30.53 in    
Wind  
Wind Speed 8 mph (ESE)    
Max Wind Speed 12 mph    
Max Gust Speed -    
Visibility 10 miles    
Events      
Averages and records for this station are not official NWS values.
T = Trace of Precipitation, MM = Missing Value Source: NWS Daily Summary

Daily Weather History Graph

Daily Weather History Graph

Search for Another Location

Airport:

Trip Planner

Search our weather history database for the weather conditions in past years. The results will help you decide how hot, cold, wet, or windy it might be!

Date:

Astronomy

Dec. 08, 2013 Rise Set
Actual Time 7:49 AM PST 4:16 PM PST
Civil Twilight 7:12 AM PST 4:52 PM PST
Nautical Twilight 6:33 AM PST 5:32 PM PST
Astronomical Twilight 5:55 AM PST 6:10 PM PST
Moon 11:49 AM PST (12/8) 11:37 PM PST (12/8)
Length of Visible Light 9h 39m
Length of Day
8h 26m
Waxing Crescent, 41% of the Moon is Illuminated
Dec 8
Waxing Crescent
Dec 9
First Quarter
Dec 17
Full
Dec 25
Last Quarter
Jan 1
New

Hourly Weather History & Observations

Time (PST) Temp. Windchill Dew Point Humidity Pressure Visibility Wind Dir Wind Speed Gust Speed Precip Events Conditions
12:56 AM 23.0 °F 11.7 °F 10.0 °F 58% 30.45 in 10.0 mi SE 11.5 mph - N/A   Clear
1:56 AM 24.1 °F 15.2 °F 12.9 °F 62% 30.46 in 10.0 mi East 8.1 mph - N/A   Overcast
2:56 AM 25.0 °F 16.3 °F 14.0 °F 63% 30.47 in 10.0 mi ESE 8.1 mph - N/A   Overcast
3:56 AM 26.1 °F 16.8 °F 12.9 °F 58% 30.47 in 10.0 mi East 9.2 mph - N/A   Overcast
4:56 AM 26.1 °F 17.6 °F 12.0 °F 55% 30.48 in 10.0 mi East 8.1 mph - N/A   Overcast
5:56 AM 26.1 °F 17.6 °F 12.0 °F 55% 30.49 in 10.0 mi East 8.1 mph - N/A   Mostly Cloudy
6:56 AM 27.0 °F 18.7 °F 12.0 °F 53% 30.50 in 10.0 mi East 8.1 mph - N/A   Mostly Cloudy
7:56 AM 27.0 °F 19.5 °F 12.0 °F 53% 30.51 in 10.0 mi East 6.9 mph - N/A   Mostly Cloudy
8:56 AM 28.0 °F 19.3 °F 14.0 °F 56% 30.53 in 10.0 mi East 9.2 mph - N/A   Mostly Cloudy
9:56 AM 30.0 °F 21.7 °F 15.1 °F 54% 30.54 in 10.0 mi ESE 9.2 mph - N/A   Scattered Clouds
10:56 AM 32.0 °F 27.5 °F 15.1 °F 50% 30.54 in 10.0 mi ESE 4.6 mph - N/A   Partly Cloudy
11:56 AM 34.0 °F 28.8 °F 15.1 °F 46% 30.54 in 10.0 mi SE 5.8 mph - N/A   Scattered Clouds
12:56 PM 35.1 °F - 16.0 °F 46% 30.53 in 10.0 mi Calm Calm - N/A   Scattered Clouds
1:56 PM 35.1 °F 30.1 °F 17.1 °F 48% 30.54 in 10.0 mi ESE 5.8 mph - N/A   Scattered Clouds
2:56 PM 34.0 °F 31.0 °F 16.0 °F 48% 30.55 in 10.0 mi SE 3.5 mph - N/A   Partly Cloudy
3:56 PM 32.0 °F 27.5 °F 16.0 °F 52% 30.56 in 10.0 mi ESE 4.6 mph - N/A   Partly Cloudy
4:56 PM 28.9 °F 25.2 °F 16.0 °F 58% 30.56 in 10.0 mi ESE 3.5 mph - N/A   Partly Cloudy
5:56 PM 27.0 °F 23.0 °F 16.0 °F 63% 30.55 in 10.0 mi SE 3.5 mph - N/A   Clear
6:56 PM 26.1 °F 20.5 °F 16.0 °F 66% 30.54 in 10.0 mi ESE 4.6 mph - N/A   Clear
7:56 PM 23.0 °F 15.8 °F 15.1 °F 72% 30.56 in 10.0 mi ESE 5.8 mph - N/A   Clear
8:56 PM 23.0 °F 13.9 °F 15.1 °F 72% 30.58 in 10.0 mi SE 8.1 mph - N/A   Clear
9:56 PM 21.0 °F 13.4 °F 15.1 °F 78% 30.59 in 10.0 mi ESE 5.8 mph - N/A   Clear
10:56 PM 21.9 °F 12.5 °F 15.1 °F 75% 30.58 in 10.0 mi ESE 8.1 mph - N/A   Clear
11:56 PM 25.0 °F 16.3 °F 15.1 °F 66% 30.59 in 10.0 mi ESE 8.1 mph - N/A   Clear